البصرة, العراق

08:59 PM AST on هاêè 29, 2015 (GMT +0300)
Basrah International | | Change Station
CLOSE
Current Station
Airport
Location: Basrah,
Elevation: 7 ft
Nearby Weather Stations

Elev 7 ft 30.52 °N, 47.78 °E | Updated -35 second ago

Clear
صافية
102 °F
Feels Like 102 °F
N
9
ريح متغير ريح from ESE

هذا اليوم
High -- | Low -- °F
--% Chance of Precip.
Yesterday
High -- | Low -- °F
Precip. -- في
4:47 AM 6:44 PM
الأحدب الأول, 85% visible
الضغط 29.62 في
وضوح الرؤية 3.7 أميال
سحابات
نقطة الندى 43 °F
الرطوبة 13%
Rainfall 0.00 في
عمق الثلج Not available.
الأشعة فوق البنفسجية Not available.
Pollen Not available.
جودة الهواء Not available.
Flu Activity Not available.
METAR ORMM 291800Z 11008KT 6000NSC 39/06 Q1003 NOSIG

More Conditions Fewer Conditions

الضغط 29.62 في
وضوح الرؤية 3.7 أميال
سحابات
نقطة الندى 43 °F
الرطوبة 13%
Rainfall 0.00 في
عمق الثلج Not available.
الأشعة فوق البنفسجية Not available.
Pollen Not available.
جودة الهواء Not available.
Flu Activity Not available.
METAR ORMM 291800Z 11008KT 6000NSC 39/06 Q1003 NOSIG

More Conditions Fewer Conditions

10-Day Weather Forecast

Almanac

علم الفلك

May. 29, 2015 Rise Set
Actual Time
Civil Twilight
Nautical Twilight
Astronomical Twilight
قمر
Length Of Visible Light
طول الیوم
Tomorrow will be .
, % of the Moon is Illuminated

Today's Extremes

Country Highs Country Lows

Community

WunderPhotos

Upload Photos

1,825,306 photos uploaded!

WunderBlogs® & News

Nearby

جودة الهواء

  جودة الهواء AQ Index Pollutant
Not available.

عمق الثلج

Station Depth Elevation

Earthquake Activity

City Distance Mag. Time & Date
Minimum magnitude displayed is 2.5.

Coastal Water Temperatures

مكان درجات الحرارة

Stations

Nearby Weather Stations

Station Location الحرارة رياح باردة نقطة الندى الرطوبة ريح Precip. Elev تحديث Type